Regional Weather Roundup
Issued by NWS

Home | Current Version | Previous Version | Graphics & Text | Print | Product List | Glossary On
Versions: 1 2 3 4 5 6 7 8 9 10 11 12 13 14 15 16 17 18 19 20 21 22 23 24 25 26 27
000
ASUS45 KCYS 201410
RWRWY

WYOMING REGIONAL WEATHER ROUNDUP
NATIONAL WEATHER SERVICE CHEYENNE WY
800 AM MDT SUN APR 20 2014

NOTE:  "FAIR" INDICATES FEW OR NO CLOUDS BELOW 12,000 FEET
WITH NO SIGNIFICANT WEATHER AND/OR OBSTRUCTIONS TO VISIBILITY.

WYZ001-201500-
YELLOWSTONE NATIONAL PARK

CITY           SKY/WX    TMP DP  RH WIND       PRES   REMARKS
LK YELLOWSTONE   N/A     35  25  66 VRB3      30.14R
W YELLOWSTONE  NOT AVBL

$$
WYZ002>013-054>058-071-098>099-201500-
NORTHERN WYOMING

CITY           SKY/WX    TMP DP  RH WIND       PRES   REMARKS
JACKSON        MOSUNNY   39  30  70 CALM      30.11R
CODY           PTSUNNY   45  27  49 CALM      29.99R
GREYBULL       CLOUDY    42  31  64 CALM      29.97R
WORLAND        CLOUDY    45  33  63 SW5       29.97R
SHERIDAN         N/A     43  34  70 CALM        N/A
BUFFALO        PTSUNNY   52  29  41 CALM      29.97R
GILLETTE       SUNNY     47  39  74 CALM      29.94R
HULETT         FAIR      48  37  66 SW3       29.95
NEWCASTLE      FAIR      45  34  65 CALM      29.97

$$
WYZ014>020-022>026-101>103-201500-
CENTRAL WYOMING

CITY           SKY/WX    TMP DP  RH WIND       PRES   REMARKS
BIG PINEY      MOSUNNY   33  23  66 CALM      30.16R
PINEDALE       MOSUNNY   30  28  93 CALM      30.16R
DUBOIS         FAIR      39  27  60 NW8       30.08R WCI  34
LANDER         PTSUNNY   47  34  60 SE3       30.04R
RIVERTON       PTSUNNY   45  23  42 NE3       30.05R
CASPER         SUNNY     51  32  48 SW14      30.03R
DOUGLAS        SUNNY     49  39  68 NW6       30.02R

$$
WYZ021-027>030-104>119-201500-
SOUTHERN WYOMING

CITY           SKY/WX    TMP DP  RH WIND       PRES   REMARKS
EVANSTON       PTSUNNY   44  31  60 SW8       30.17R
KEMMERER       MOSUNNY   43  30  61 N3        30.17R
FORT BRIDGER   FAIR      48  32  53 W10       30.18R
ROCK SPRINGS   PTSUNNY   47  31  53 S3        30.14R
DIXON          FAIR      42  36  81 CALM      30.20R
RAWLINS        SUNNY     48  33  56 VRB5      30.13R
SARATOGA       FAIR      41  34  75 S8        30.16R
LARAMIE        SUNNY     40  34  79 SE7       30.14R
CHEYENNE       SUNNY     53  36  52 NW9       30.08R
TORRINGTON     SUNNY     44  39  82 CALM      30.00R
PINE BLUFFS    FAIR      46  41  81 W3        30.07R

$$



USA.gov is the U.S. government's official web portal to all federal, state and local government web resources and services.